Location: Stamford Observatory
(41.1241°N, 73.5498°W)
Time: 03:47:20
(UTC-04:00)

Daily predictions for brighter satellites

Satellite Brightness Start Highest point End
(mag) Time Altitude Azimuth Time Altitude Azimuth Time Altitude Azimuth
CZ-2C R/B 4.2 00:01:02 10° NE 00:04:42 20° E 00:04:42 20° E
Cosmos 2219 Rocket 3.7 00:01:00 10° NW 00:05:19 23° WSW 00:06:29 22° WSW
CZ-4B R/B 2.9 00:10:33 35° NE 00:10:33 35° NE 00:12:59 10° N
Cosmos 2184 Rocket 4.0 00:08:33 55° SSE 00:09:49 69° E 00:15:58 10° NNE
NOSS 2-3 (C) 3.8 00:09:54 73° SE 00:10:04 74° ESE 00:15:41 10° NE
Cosmos 1125 Rocket 4.0 00:10:01 41° WSW 00:11:34 57° WNW 00:16:50 10° NNE
SeaSat 1 2.3 00:12:26 69° SW 00:12:44 72° WSW 00:17:40 10° NNW
Meteor 1-26 Rocket 4.1 00:07:09 10° NNW 00:12:47 80° W 00:13:42 63° SSW
Cosmos 1048 Rocket 4.0 00:07:51 10° NNW 00:13:12 70° WSW 00:13:46 64° SSW
Cosmos 1603 4.3 00:12:40 10° NNW 00:18:11 49° ENE 00:19:41 39° ESE
Lacrosse 4 Rocket 1.9 00:20:49 10° NW 00:24:39 55° W 00:24:39 55° W
ASTEX 1 3.2 00:26:12 10° N 00:31:06 82° E 00:31:11 81° ESE
NOSS 2-3 (D) 3.9 00:30:30 65° WSW 00:31:11 79° NW 00:36:52 10° NNE
Uosat 12 SS-18 rocket 4.5 00:33:08 60° E 00:33:08 60° E 00:37:07 10° NE
Cosmos 2237 Rocket 3.8 00:31:17 10° NW 00:35:23 21° W 00:36:00 20° WSW
Aureole 2 Rocket 4.2 00:32:53 10° NNW 00:34:34 30° NNW 00:34:34 30° NNW
Cosmos 1733 Rocket 3.2 00:41:41 69° NE 00:41:41 69° NE 00:45:44 10° N
Cosmos 158 Rocket 3.9 00:36:38 10° NNW 00:41:56 74° WSW 00:42:06 74° SW
Landsat 5 3.7 00:42:32 76° NW 00:42:32 76° NW 00:46:48 10° NNW
MOS 1-B Rocket 4.1 00:41:17 48° ESE 00:42:32 60° ENE 00:48:03 10° N
Meteor 2-3 Rocket 3.9 00:41:29 53° SW 00:42:35 64° WNW 00:48:17 10° N
Cosmos 1892 3.5 00:44:30 49° N 00:44:30 49° N 00:47:20 10° N
ALOS 2 3.2 00:48:22 48° WNW 00:48:22 48° WNW 00:52:11 10° NNW
Meteor 1-10 Rocket 4.3 00:42:12 10° N 00:48:10 77° E 00:49:10 62° SE
Cosmos 44 3.6 00:48:37 59° ESE 00:48:37 59° ESE 00:53:47 10° NE
COSMOS 2455 3.5 00:43:50 10° NW 00:49:19 38° WSW 00:49:34 37° WSW
H-2A R/B 3.1 00:45:51 10° N 00:49:51 50° WNW 00:49:51 50° WNW
Coronas F rocket 4.5 00:57:50 16° N 00:57:50 16° N 00:58:31 10° N
ATLAS 2AS CENTAUR R/B 4.2 00:52:25 10° WSW 00:59:27 38° NW 01:06:54 10° NNE
Cosmos 1408 4.3 01:05:24 28° ENE 01:05:24 28° ENE 01:07:51 10° NNE
Cosmos 1825 3.6 01:10:18 33° ENE 01:10:18 33° ENE 01:12:56 10° NNE
Helios 1A Rocket 3.5 01:08:09 10° N 01:11:55 52° NW 01:11:55 52° NW
Okean 2 Rocket 4.1 01:13:58 37° E 01:13:58 37° E 01:17:59 10° NNE
Cosmos 1782 3.6 01:10:57 10° NNW 01:14:00 48° NW 01:14:00 48° NW
Nadezhda 3 Rocket 3.9 01:09:21 10° N 01:15:35 75° W 01:16:43 59° SSW
ATLAS 3B R/B 3.6 01:11:25 10° NW 01:17:08 29° WSW 01:17:16 29° WSW
Cosmos 1782 Rocket 4.2 01:17:59 47° ENE 01:17:59 47° ENE 01:21:52 10° NNE
Cosmos 2251 Rocket 4.0 01:14:23 10° NNW 01:19:20 45° W 01:19:20 45° W
Cosmos 2263 Rocket 2.7 01:19:12 43° ESE 01:19:36 44° ESE 01:24:57 10° NE
Cosmos 1340 Rocket 4.2 01:21:31 30° WNW 01:21:31 30° WNW 01:24:33 10° N
Geosat 4.3 01:16:20 10° NNE 01:21:17 58° WNW 01:22:07 51° W
CZ-2C R/B 3.3 01:21:36 57° SE 01:22:46 76° ENE 01:28:25 10° N
USA 238 DEB 3.8 01:17:52 10° NW 01:24:43 57° WSW 01:25:50 52° SSW
USA 238 3.8 01:17:58 10° NW 01:24:50 58° WSW 01:25:57 52° SSW
SL-16 R/B 4.0 01:24:28 10° WNW 01:27:44 17° W 01:27:44 17° W
RESURS DK-1 3.7 01:36:20 30° E 01:36:20 30° E 01:39:19 10° NE
Cosmos 1867 4.2 01:31:22 10° NNW 01:36:43 52° NE 01:39:21 28° ESE
Cosmos 1607 3.8 01:31:29 10° NW 01:37:34 65° WSW 01:38:19 59° SSW
Cosmos 921 Rocket 3.7 01:38:18 43° WNW 01:38:18 43° WNW 01:42:07 10° N
PSLV R/B 4.1 01:39:15 69° NNW 01:39:15 69° NNW 01:42:51 10° NNW
CZ-4C R/B 2.8 01:32:55 10° NW 01:40:05 86° WSW 01:43:31 37° SSE
Cosmos 1975 Rocket 3.0 01:36:06 10° N 01:40:19 78° NE 01:40:19 78° NE
Meteor 1-27 Rocket 3.8 01:38:15 10° NNW 01:44:01 61° W 01:44:47 56° SW
CZ-2C R/B 3.0 01:40:21 10° N 01:45:22 48° WNW 01:46:13 44° W
USA 234 4.0 01:40:03 10° ESE 01:46:21 53° NNE 01:52:40 10° NW
Cosmos 1908 Rocket 4.2 01:47:05 43° WNW 01:47:05 43° WNW 01:51:02 10° N
Cosmos 1943 3.1 01:46:52 10° NNW 01:52:32 69° WSW 01:53:14 62° SSW
Cosmos 1242 Rocket 3.9 01:49:45 10° N 01:52:43 33° ENE 01:52:43 33° ENE
Cosmos 1184 Rocket 4.1 01:55:58 40° NE 01:55:58 40° NE 01:58:21 10° NNE
PSLV R/B 4.0 01:52:51 10° NNE 01:56:57 50° E 01:56:57 50° E
Cosmos 1862 4.3 01:58:08 38° WNW 01:58:08 38° WNW 02:01:30 10° N
NOSS 3-2 (C) 3.9 01:51:00 10° NW 01:58:35 89° ENE 02:03:50 24° SSE
Cosmos 1606 4.4 01:59:08 10° NNW 02:01:27 25° WNW 02:01:27 25° WNW
Landsat 4 4.5 02:06:50 44° E 02:07:08 45° ENE 02:10:46 10° N
Cosmos 2151 Rocket 3.5 02:12:10 67° SE 02:12:31 71° E 02:16:59 10° NNE
JB-3 4.3 02:14:37 10° NNE 02:18:26 72° E 02:18:26 72° E
NOSS 3-4 (A) 3.8 02:17:55 36° WSW 02:20:34 62° NW 02:27:07 10° NNE
NOSS 3-4 (C) 3.8 02:18:01 36° WSW 02:20:39 62° NW 02:27:12 10° NNE
NOSS 3-2 (A) 4.0 02:14:46 10° NW 02:22:10 59° WSW 02:25:29 36° S
Okean 1 Rocket 4.4 02:22:11 27° ESE 02:23:29 32° E 02:27:26 10° NNE
Gbstr 26 Del rocket 4.3 02:26:00 24° ESE 02:26:00 24° ESE 02:28:24 10° ENE
NPP 4.0 02:21:39 10° NNE 02:26:57 56° E 02:28:45 38° SSE
Cosmos 1190 Rocket 4.0 02:25:59 10° NNW 02:31:14 76° ENE 02:33:29 34° SSE
Cosmos 1371 Rocket 4.4 02:37:07 41° WSW 02:38:38 54° WNW 02:43:54 10° N
CRYOSAT 2 4.5 02:34:09 10° N 02:38:56 60° W 02:39:55 49° SW
Cosmos 2056 Rocket 3.5 02:38:19 47° SW 02:39:47 72° WNW 02:45:02 10° NNE
Cosmos 1339 Rocket 4.4 02:33:59 10° NNW 02:40:01 67° W 02:42:09 40° SSW
BREEZE-M DEB (TANK) 3.6 02:31:09 10° WNW 02:40:13 50° SW 02:40:42 48° SSW
IRAS Rocket 4.2 02:35:17 10° NNE 02:40:50 77° ESE 02:42:54 40° S
GP-B 3.6 02:37:26 10° N 02:41:49 55° E 02:43:18 37° SSE
Meteor 1-20 Rocket 4.3 02:41:32 38° S 02:43:54 78° E 02:49:43 10° NNE
ERS-2 2.4 02:40:50 10° NNE 02:44:31 58° ESE 02:44:57 53° SE
Cosmos 1825 4.5 02:45:14 13° WNW 02:45:14 13° WNW 02:47:09 10° NW
Cosmos 407 Rocket 3.4 02:41:50 10° NNW 02:47:01 84° ENE 02:49:42 29° SSE
CZ-2D R/B 4.1 02:43:17 10° NE 02:47:28 22° E 02:51:38 10° SE
Cosmos 1812 2.7 02:44:58 10° N 02:48:53 81° E 02:49:35 58° SSE
Cosmos 676 Rocket 4.1 02:49:41 10° NNW 02:54:54 74° ENE 02:58:32 20° SSE
Cosmos 1844 Rocket 2.9 02:58:18 33° S 03:00:49 66° ESE 03:06:27 10° NNE
Okean 1 3.2 02:58:49 10° N 03:02:49 79° W 03:03:47 50° S
Cosmos 2263 Rocket 3.6 03:00:53 19° W 03:03:40 28° NW 03:08:33 10° N
SL-27 R/B 2.4 03:00:05 10° NNW 03:03:45 82° WSW 03:04:27 56° S
Cosmos 967 Rocket 4.5 03:03:06 33° SSW 03:06:17 87° WNW 03:12:47 10° NNE
Cosmos 1535 Rocket 4.4 03:03:21 30° S 03:06:37 88° W 03:12:54 10° N
IRS-1C 4.1 03:01:28 10° NNE 03:06:51 87° ESE 03:09:25 32° SSW
Cosmos 1844 4.1 03:05:37 27° S 03:08:33 56° ESE 03:14:10 10° NNE
Meteor 2-21 4.4 03:05:24 29° S 03:08:43 87° E 03:14:51 10° N
NOSS 2-2 (E) 4.2 03:07:42 33° SSE 03:09:06 46° ESE 03:13:40 10° NE
IRS-1D 4.4 03:06:24 10° NNE 03:11:13 42° E 03:14:35 18° SSE
RESURS DK-1 4.1 03:12:15 19° W 03:13:41 22° NW 03:17:00 10° N
Abrixas rocket 3.6 03:16:30 22° WNW 03:18:10 36° NNW 03:21:19 10° NE
COSMOS 2406 3.4 03:13:30 10° NNW 03:19:08 54° WSW 03:22:29 24° S
Cosmos 1300 Rocket 3.9 03:18:47 36° SW 03:20:08 50° W 03:24:23 10° N
CBERS 1 LM4 rocket 4.4 03:17:10 10° N 03:22:06 72° WNW 03:24:23 31° SSW
Cosmos 1954 Rocket 3.9 03:16:56 10° NNW 03:22:08 83° WSW 03:26:29 15° SSE
Cosmos 2278 Rocket 2.9 03:18:50 20° S 03:22:29 48° ESE 03:27:55 10° NE
USA 161 1.4 03:23:19 55° SSE 03:23:51 84° E 03:26:47 10° N
ATLAS 5 CENTAUR R/B 3.7 03:19:36 10° NNW 03:25:13 42° NE 03:31:12 10° ESE
CZ-4C R/B 4.2 03:23:17 10° WNW 03:27:59 18° WSW 03:28:37 18° WSW
USA 234 3.4 03:23:06 10° SSE 03:29:22 48° SW 03:35:40 10° WNW
UNK 4.4 03:25:02 10° SSE 03:29:32 56° ENE 03:34:06 10° N
Resurs 1-4 Rocket 2.6 03:27:07 10° NNE 03:32:21 55° E 03:36:39 15° S
SL-08 R/B 4.2 03:32:29 27° SW 03:34:05 33° W 03:38:32 10° NNW
Cosmos 1602 3.7 03:34:37 32° SSW 03:36:16 71° W 03:40:07 10° N
Cosmos 1892 Rocket 4.1 03:32:18 10° N 03:36:36 56° E 03:40:51 10° SSE
Cosmos 2082 Rocket 4.2 03:35:51 10° N 03:40:51 30° NE 03:45:48 10° ESE
ATLAS 2A CENTAUR R/B 4.1 03:38:19 21° SW 03:43:04 34° S 04:12:20 10° ESE
CENTAUR R/B 3.0 03:36:38 10° NW 03:44:30 73° WSW 03:52:45 10° SSE
ARIANE 5 R/B 2.4 03:39:39 10° NNE 03:44:40 84° WNW 03:48:13 20° SSW
Okean 2 4.2 03:41:19 10° N 03:45:20 51° E 03:49:20 10° SSE
Cosmos 1452 Rocket 4.1 03:42:56 22° SW 03:45:53 43° WNW 03:50:54 10° N
Cosmos 1934 Rocket 4.2 03:42:14 21° SSW 03:46:20 57° W 03:52:24 10° N
Meteor 2-4 Rocket 3.7 03:41:14 10° N 03:46:40 79° E 03:52:00 10° SSE
Timation 2 Rocket 4.5 03:42:44 10° NNW 03:48:52 61° ENE 03:54:47 10° SE
Cosmos 1356 3.6 03:47:47 21° S 03:50:03 74° E 03:53:37 10° NNE
Cosmos 1633 2.4 03:48:47 24° SSW 03:50:51 80° W 03:54:30 10° N
ADEOS 4.1 03:46:29 10° N 03:51:25 44° WNW 03:54:44 20° SW
Cosmos 1023 Rocket 4.4 03:51:17 10° NNW 03:56:19 61° WSW 04:01:18 10° S
Cosmos 1420 Rocket 4.1 03:53:20 20° SSW 03:57:01 66° WNW 04:02:18 10° NNE
Cosmos 1536 3.1 03:57:35 21° SSW 04:00:05 52° W 04:04:05 10° N
COSMOS 2487 2.6 03:58:08 10° NNW 04:01:43 56° WSW 04:05:15 10° S
SME Rocket 2.8 03:59:40 10° S 04:03:23 71° WSW 04:07:29 10° NNW
UNKNOWN OBJECT B 2.9 04:00:44 10° NNE 04:04:51 82° E 04:08:33 13° S
CZ-2D R/B 3.9 04:00:55 10° NNE 04:04:51 58° E 04:08:51 10° S
Cosmos 1461 3.2 04:04:34 18° SW 04:08:03 75° WNW 04:12:41 10° NNE
SL-16 R/B 2.6 04:03:04 10° S 04:09:11 58° WSW 04:15:21 10° NNW
Okean O Rocket 2.4 04:05:11 10° NNE 04:09:25 49° E 04:13:37 10° S
Gbstr 26 Del rocket 3.4 04:08:34 13° WSW 04:11:51 45° NNW 04:15:27 10° NE
Cosmos 1140 Rocket 3.9 04:11:55 10° NW 04:16:40 39° WSW 04:21:24 10° S
NOSS 2-2 (D) 4.3 04:16:07 14° WSW 04:19:26 44° NW 04:24:07 10° NNE
Cosmos 1605 Rocket 4.5 04:15:16 13° SW 04:20:21 43° WNW 04:26:19 10° N
EO 1 Del DPAF 4.2 04:21:45 12° SSW 04:24:54 30° W 04:28:22 10° NW
CZ-2C R/B 3.9 04:20:20 10° SSE 04:25:04 85° ENE 04:29:53 10° NNW
Cosmos 1833 Rocket 3.7 04:20:01 10° NNW 04:25:30 51° ENE 04:30:56 10° SE
Cosmos 1626 Rocket 3.9 04:21:41 10° N 04:26:03 70° E 04:30:25 10° SSE
Cosmos 1455 Rocket 3.2 04:21:55 10° SSW 04:26:13 59° W 04:30:37 10° N
CZ-2D R/B 2.6 04:22:32 10° N 04:27:46 49° WNW 04:33:00 10° SW
Cosmos 1025 Rocket 4.3 04:24:43 10° NW 04:28:10 24° W 04:31:24 11° SW
Cosmos 1850 Rocket 4.4 04:23:29 10° NNW 04:28:23 41° WSW 04:33:18 10° S
Cosmos 1741 Rocket 4.4 04:25:14 10° NNW 04:30:11 41° WSW 04:35:03 10° S
Cosmos 2016 Rocket 4.4 04:25:58 10° S 04:32:13 68° E 04:38:27 10° NNE
Cosmos 1400 Rocket 4.1 04:40:22 10° SW 04:43:32 24° WNW 04:46:45 10° NNW
Cosmos 1844 Rocket 4.4 04:41:04 10° W 04:45:14 20° NW 04:49:23 10° N
PAYLOAD B 4.3 04:43:06 10° NNE 04:48:43 83° WNW 04:54:19 10° SSW
APEX 2.6 04:46:51 10° SSW 04:49:40 71° WNW 04:53:01 10° NNE
Cosmos 2173 Rocket 4.2 04:51:15 10° SSW 04:57:13 56° W 05:03:17 10° N
